Dubuque, IA

11:18 AM CST on November 18, 2019 (GMT -0600)
Dubuque Regional

Weather History for KDBQ - September, 2019

Change the Weather History Date:

Saturday, September 21, 2019

  Actual Average Record
Temperature  
Mean Temperature 72 °F 60 °F  
Max Temperature 73 °F 70 °F 94 °F (1891)
Min Temperature 70 °F 49 °F 35 °F (1952)
Degree Days  
Heating Degree Days 0 6  
Month to date heating degree days 24 78  
Since 1 July heating degree days 33 105  
Cooling Degree Days 6 1  
Month to date cooling degree days 81 53  
Year to date cooling degree days 654 629  
Growing Degree Days 22 (Base 50)    
Moisture  
Dew Point 70 °F    
Average Humidity 95    
Maximum Humidity 100    
Minimum Humidity 90    
Precipitation  
Precipitation 0.18 in 0.12 in 2.40 in (1965)
Month to date precipitation 10.77 2.48  
Year to date precipitation 41.90 28.46  
Snow  
Snow 0.00 in 0.00 in - ()
Month to date snowfall 0.0 0.0  
Since 1 July snowfall 0.0 0.0  
Since 1 September snowfall 0.0 0.0  
Snow Depth 0.00 in    
Sea Level Pressure  
Sea Level Pressure 29.97 in    
Wind  
Wind Speed 12 mph ()    
Max Wind Speed 20 mph    
Max Gust Speed 28 mph    
Visibility 8.0 miles    
Events Rain    
T = Trace of Precipitation, MM = Missing Value Source: Averaged Metar Reports

Daily Weather History Graph

Daily Weather History Graph

Search for Another Location

Airport or City:

Astronomy

Sep. 21, 2019 Rise Set
Actual Time 6:48 AM CDT 7:02 PM CDT
Civil Twilight 6:20 AM CDT 7:30 PM CDT
Nautical Twilight 5:47 AM CDT 8:03 PM CDT
Astronomical Twilight 5:14 AM CDT 8:36 PM CDT
Moon 11:32 PM CDT (9/21) 2:02 PM CDT (9/21)
Length of Visible Light 13h 09m
Length of Day
12h 13m
Waning Gibbous, 54% of the Moon is Illuminated
Sep 21
Waning Gibbous
Sep 21
Last Quarter
Sep 28
New
Oct 5
First Quarter
Oct 13
Full

Hourly Weather History & Observations

Time (CDT) Temp. Dew Point Humidity Pressure Visibility Wind Dir Wind Speed Gust Speed Precip Events Conditions
12:53 AM 71.1 °F 68.0 °F 90% 30.01 in 10.0 mi South 9.2 mph - N/A   Mostly Cloudy
1:53 AM 71.1 °F 69.1 °F 93% 30.00 in 9.0 mi South 10.4 mph - N/A   Partly Cloudy
2:53 AM 71.1 °F 69.1 °F 93% 30.00 in 9.0 mi South 11.5 mph - N/A   Mostly Cloudy
3:53 AM 70.0 °F 69.1 °F 97% 29.99 in 8.0 mi South 10.4 mph - N/A   Clear
4:53 AM 70.0 °F 68.0 °F 93% 29.99 in 9.0 mi South 10.4 mph - N/A   Mostly Cloudy
5:53 AM 70.0 °F 68.0 °F 93% 29.99 in 10.0 mi South 11.5 mph - N/A   Overcast
6:11 AM 70.0 °F 68.0 °F 93% 30.01 in 10.0 mi South 13.8 mph 20.7 mph N/A   Overcast
6:35 AM 70.0 °F 68.0 °F 93% 30.01 in 10.0 mi South 11.5 mph - N/A   Overcast
6:53 AM 70.0 °F 68.0 °F 93% 29.99 in 10.0 mi South 13.8 mph 24.2 mph N/A   Overcast
7:53 AM 70.0 °F 68.0 °F 93% 29.99 in 10.0 mi South 15.0 mph 21.9 mph N/A   Overcast
8:53 AM 71.1 °F 69.1 °F 93% 29.99 in 10.0 mi South 13.8 mph 23.0 mph N/A   Overcast
9:22 AM 70.0 °F 69.1 °F 97% 30.01 in 1.8 mi South 13.8 mph - 0.00 in Rain Heavy Rain
9:29 AM 70.0 °F 69.1 °F 97% 30.01 in 1.2 mi South 11.5 mph - 0.03 in Rain Heavy Rain
9:33 AM 70.0 °F 69.1 °F 97% 30.01 in 1.5 mi South 12.7 mph - 0.07 in Rain Rain
9:42 AM 70.0 °F 69.1 °F 97% 30.01 in 3.0 mi South 12.7 mph - 0.11 in Rain Rain
9:53 AM 70.0 °F 69.1 °F 97% 29.99 in 5.0 mi South 11.5 mph - 0.11 in Rain Light Rain
10:53 AM 70.0 °F 70.0 °F 100% 29.99 in 7.0 mi South 13.8 mph - 0.01 in   Overcast
11:53 AM 71.1 °F 70.0 °F 96% 29.98 in 8.0 mi South 17.3 mph - 0.01 in   Overcast
12:43 PM 71.1 °F 71.1 °F 100% 29.98 in 6.0 mi South 15.0 mph - 0.01 in Rain Light Rain
12:50 PM 71.6 °F 69.8 °F 94% 29.98 in 5.0 mi South 13.8 mph - 0.02 in Rain Light Rain
12:53 PM 71.1 °F 70.0 °F 96% 29.97 in 6.0 mi South 12.7 mph - 0.02 in Rain Light Rain
1:53 PM 72.0 °F 71.1 °F 97% 29.95 in 7.0 mi SSW 12.7 mph - 0.02 in Rain Light Rain
2:53 PM 72.0 °F 71.1 °F 97% 29.95 in 8.0 mi SSW 17.3 mph - 0.01 in Rain Light Rain
3:17 PM 72.0 °F 71.1 °F 97% 29.96 in 8.0 mi SSW 13.8 mph - 0.00 in   Overcast
3:44 PM 73.0 °F 71.1 °F 93% 29.95 in 8.0 mi South 15.0 mph 26.5 mph 0.00 in   Overcast
3:53 PM 73.0 °F 71.1 °F 93% 29.93 in 8.0 mi SSW 16.1 mph - 0.00 in   Overcast
4:15 PM 73.0 °F 71.1 °F 93% 29.94 in 8.0 mi SSW 16.1 mph 25.3 mph N/A   Overcast
4:53 PM 73.0 °F 72.0 °F 96% 29.93 in 7.0 mi SSW 13.8 mph - N/A   Overcast
5:53 PM 73.0 °F 72.0 °F 96% 29.94 in 9.0 mi SSW 13.8 mph - N/A   Overcast
6:00 PM 73.0 °F 72.0 °F 96% 29.94 in 9.0 mi South 11.5 mph - N/A   Overcast
6:21 PM 73.0 °F 72.0 °F 96% 29.94 in 9.0 mi SSW 16.1 mph 21.9 mph N/A   Overcast
6:36 PM 73.0 °F 72.0 °F 96% 29.94 in 10.0 mi South 13.8 mph - N/A   Overcast
6:53 PM 73.0 °F 72.0 °F 96% 29.93 in 9.0 mi South 15.0 mph 23.0 mph N/A   Overcast
7:02 PM 73.0 °F 72.0 °F 96% 29.94 in 8.0 mi South 13.8 mph - N/A   Overcast
7:42 PM 73.0 °F 71.1 °F 93% 29.94 in 10.0 mi South 16.1 mph 24.2 mph N/A   Overcast
7:53 PM 73.0 °F 71.1 °F 93% 29.93 in 10.0 mi South 12.7 mph - N/A   Overcast
8:01 PM 72.0 °F 71.1 °F 97% 29.94 in 10.0 mi South 13.8 mph - N/A   Overcast
8:22 PM 72.0 °F 71.1 °F 97% 29.95 in 9.0 mi South 11.5 mph - N/A   Overcast
8:53 PM 73.0 °F 71.1 °F 93% 29.93 in 10.0 mi South 15.0 mph 26.5 mph N/A   Overcast
9:08 PM 72.0 °F 71.1 °F 97% 29.95 in 10.0 mi SSW 13.8 mph 24.2 mph N/A   Overcast
9:38 PM 72.0 °F 71.1 °F 97% 29.96 in 8.0 mi South 12.7 mph 24.2 mph N/A   Overcast
9:53 PM 72.0 °F 71.1 °F 97% 29.94 in 9.0 mi South 17.3 mph 25.3 mph N/A   Overcast
10:25 PM 72.0 °F 71.1 °F 97% 29.95 in 8.0 mi South 18.4 mph 25.3 mph 0.00 in   Overcast
10:34 PM 72.0 °F 71.1 °F 97% 29.95 in 9.0 mi South 15.0 mph - 0.00 in   Overcast
10:42 PM 72.0 °F 71.1 °F 97% 29.95 in 8.0 mi South 16.1 mph 26.5 mph 0.00 in   Overcast
10:53 PM 72.0 °F 71.1 °F 97% 29.93 in 8.0 mi South 16.1 mph - 0.00 in   Overcast
11:04 PM 72.0 °F 71.1 °F 97% 29.95 in 8.0 mi South 16.1 mph 23.0 mph N/A   Overcast
11:53 PM 71.1 °F 70.0 °F 96% 29.92 in 8.0 mi South 15.0 mph - N/A   Mostly Cloudy